Home   Weather   Gävle   Past weeks

Flag for Sweden Past Weather in Gävle, Sweden — Yesterday and Last 2 Weeks

Now
32 °F

Passing clouds.


Feels Like: 32 °F
Forecast: 29 / 35 °F
Wind: 2 mph from Northwest

Location: Films Kyrkby

Current Time: Jan 24, 2017 at 2:27:37 am

Latest Report: Jan 24, 2017 at 1:00 am


Visibility: 31 mi

Pressure: 29.96 "Hg

Humidity: 77%

Dew Point: 25 °F

Location of GävleLocation

Past Weather in Gävle — Graph

°F

Gävle Temperature Yesterday

Maximum temperature yesterday: 36 °F (at 3:00 pm)
Minimum temperature yesterday: 33 °F (at 7:00 pm)
Average temperature yesterday: 35 °F

High & Low Weather Summary for the Past Weeks

 TemperatureHumidityPressure
High43 °F (Jan 20, 2:00 pm)100% (Jan 9, 10:00 am)30.42 "Hg (Jan 9, 10:00 am)
Low12 °F (Jan 17, 5:00 am)67% (Jan 23, 8:00 pm)28.67 "Hg (Jan 12, 2:00 am)
Average30 °F92%29.83 "Hg
* Reported Jan 9 1:00 am — Jan 24 1:00 am, Gävle, Weather by CustomWeather, © 2017

Note: Actual official high and low records may vary slightly from our data, if they occured in-between our weather recording intervals... More about our weather records

Advertising

Gävle Weather History for the Previous 24 Hours

Scroll right to see more
 ConditionsComfort  
Time TempWeatherWind HumidityBarometerVisibility
1:00 am
Tue, Jan 24
32 °FPassing clouds.2 mph77%29.96 "Hg31 mi
12:00 am31 °FClear.2 mph78%29.94 "Hg31 mi
11:00 pm
Mon, Jan 23
33 °FClear.2 mph74%29.93 "Hg31 mi
10:00 pm34 °FClear.2 mph71%29.91 "Hg31 mi
9:00 pm35 °FClear.3 mph68%29.89 "Hg31 mi
8:00 pm35 °FClear.3 mph67%29.87 "Hg31 mi
7:00 pm33 °FClear.2 mph75%29.87 "Hg31 mi
6:00 pm33 °FClear.1 mph76%29.87 "Hg31 mi
5:00 pm33 °FClear.2 mph76%29.86 "Hg31 mi
4:00 pm35 °FClear.2 mph74%29.86 "Hg31 mi
3:00 pm36 °FOvercast.2 mph76%29.85 "Hg31 mi
2:00 pm36 °FOvercast.2 mph79%29.85 "Hg31 mi
1:00 pm35 °FOvercast.2 mph80%29.86 "Hg31 mi
12:00 pm35 °FOvercast.2 mph83%29.87 "Hg31 mi
11:00 am35 °FScattered clouds.2 mph84%29.88 "Hg31 mi
10:00 am35 °FScattered clouds.3 mph84%29.88 "Hg31 mi
9:00 am35 °FOvercast.2 mph86%29.88 "Hg31 mi
8:00 am35 °FOvercast.3 mph87%29.88 "Hg31 mi
7:00 am35 °FOvercast.2 mph88%29.88 "Hg31 mi
6:00 am35 °FOvercast.3 mph88%29.90 "Hg31 mi
5:00 am35 °FOvercast.3 mph89%29.92 "Hg31 mi
4:00 am35 °FOvercast.3 mph89%29.93 "Hg31 mi
3:00 am35 °FOvercast.2 mph89%29.94 "Hg31 mi
2:00 am35 °FOvercast.3 mph88%29.96 "Hg31 mi
Weather by CustomWeather, © 2017

See weather overviewHow to use our weather pages